{"data":{"norad_id":69956,"epoch":"2026-09-19T16:45:10.406304Z","epoch_age_seconds":87091,"freshness":"FRESH","line1":"1 69956U 26157P   26262.69803711  .00011950  00000+0  36428-3 0  9990","line2":"2 69956  53.1581 337.1897 0001576  80.5431 279.5749 15.34396526 11254","mean_motion":15.34396526,"eccentricity":0.0001576,"inclination_deg":53.1581,"raan_deg":337.1897,"arg_perigee_deg":80.5431,"mean_anomaly_deg":279.5749,"bstar":0.00036428,"rev_number":1125,"period_min":93.847970560382,"perigee_km":461.63544763755,"apogee_km":463.79168373585,"semimajor_km":6840.8505656867,"source":"CELESTRAK","updated_at":"2026-09-20T09:00:44.301571Z"}}